sat.trackr.live / text

‹ back to catalog

ONEWEB-0208

NORAD 48243 · 2021-031AK

PAYLOAD ACTIVE UNKNOWN

§ Identity

Operator
Country
UK
Launch date
2021-04-25
Launch site
VOSTO
Launch vehicle
Mass (kg)
RCS (m²)

Purposes: comms

External: N2YO · Heavens-Above · Gunter

§ Orbital elements

Epoch: 2026-09-18T07:51:31.583232Z

Period
109.55 min
Inclination
87.8897°
Eccentricity
0.0001610
Mean motion
13.14502181 rev/d
Perigee alt
1,204.6 km
Apogee alt
1,207.0 km
Semi-major
7,583.9 km
B*
7.4545e-4
RAAN
271.1291°
Arg perigee
87.7973°
Mean anomaly
272.3341°
Rev number
26,054

§ Raw data

ONEWEB-02081 48243U 21031AK  26261.32744888  .00000289  00000+0  74545-3 0  99952 48243  87.8897 271.1291 0001610  87.7973 272.3341 13.14502181260547

JSON: /api/v1/satellites/48243 · /tle

For live sub-satellite position, see the globe view (requires WebGL).

§ Visibility from observer

Set your observer location to see the next 7 days of passes ≥ 10°. The values pass through the URL so the page stays shareable.

No JS? Fill the form by hand. The geolocation button needs JavaScript.